Location: Newark
(44.3789°N, 0.6828°W)
Time: 09:21:09
(UTC+00:00)

X-37B - Visible Passes

Search period start: 30 September 2020 00:00
Search period end: 10 October 2020 00:00
Orbit: 386 x 387 km, 45.0° (Epoch: 18 September)

Date Brightness Start Highest point End Pass type
(mag) Time Alt. Az. Time Alt. Az. Time Alt. Az.
02 Oct 2.1 19:08:46 10° SSW 19:10:54 24° SSE 19:10:54 24° SSE visible
03 Oct 2.6 18:11:05 10° S 18:13:04 15° SE 18:15:03 10° ESE visible
03 Oct 2.7 19:46:08 10° WSW 19:47:32 23° SW 19:47:32 23° SW visible
04 Oct 1.2 18:47:45 10° SW 18:50:46 40° SSE 18:51:46 30° ESE visible
05 Oct 1.0 19:25:31 10° WSW 19:28:11 59° WSW 19:28:11 59° WSW visible
06 Oct 0.7 18:27:00 10° WSW 18:30:08 61° SSE 18:32:15 19° E visible
06 Oct 3.5 20:03:35 10° W 20:04:31 18° W 20:04:31 18° W visible
07 Oct 0.5 19:04:58 10° W 19:08:09 81° N 19:08:32 65° ENE visible
08 Oct 0.6 18:06:23 10° WSW 18:09:34 84° SSE 18:12:31 12° E visible
08 Oct 2.6 19:43:04 10° W 19:44:47 29° WNW 19:44:47 29° WNW visible
09 Oct 0.6 18:44:28 10° W 18:47:38 76° N 18:48:46 36° E visible
